Location: Zerbst
(51.9650°N, 12.0766°E)
Time: 22:39:41
(UTC+02:00)

ISS - Pass Details

Date: 20 May 2017
Orbit: 401 x 408 km, 51.6° (Epoch: 25 June)

Event Time Altitude Azimuth Distance (km) Brightness Sun altitude
Exits shadow 03:43:21 - 275° (W) 2,114 -0.5 -10.5°
Reaches altitude 10° 03:44:54 10° 274° (W) 1,472 -1.3 -10.3°
Maximum altitude 03:48:12 82° 187° (S) 416 -3.9 -10.0°
Drops below altitude 10° 03:51:30 10° 100° (E) 1,465 -0.6 -9.7°
Sets 03:53:34 0° 99° (E) 2,322 0.5 -9.5°
